Regional Weather Roundup
Issued by NWS

Home | Current Version | Previous Version | Graphics & Text | Print | Product List | Glossary On
Versions: 1 2 3 4 5 6 7 8 9 10 11 12 13 14 15 16 17 18 19 20 21 22 23 24 25 26 27 28 29 30 31 32 33 34 35 36 37 38 39 40 41 42 43 44 45 46 47 48 49 50
000
ASUS43 KLSX 302010
RWRMO

WEATHER SUMMARY FOR MISSOURI
NATIONAL WEATHER SERVICE SPRINGFIELD MO
300 PM CDT SUN AUG 30 2015

NOTE: "FAIR" INDICATES FEW OR NO CLOUDS BELOW 12,000 FEET WITH NO
       SIGNIFICANT WEATHER AND/OR OBSTRUCTIONS TO VISIBILITY.
       CURRENT SKY AND/OR WEATHER CONDITIONS ARE NOT AVAILABLE FOR
       CHILLICOTHE AND FARMINGTON.

MOZ001>031-035>038-043-044-053-054-302100-
...NORTHERN AND WESTERN MISSOURI...

CITY           SKY/WX    TMP DP  RH WIND       PRES   REMARKS
KANSAS CTY INT PTSUNNY   84  64  50 E9        30.02F
KANSAS C DTWN  PTSUNNY   83  69  62 VRB6      29.99F
LEE`S SUMMIT   MOSUNNY   82  70  66 SE7       30.02F
ST JOSEPH      PTSUNNY   82  69  64 E6        30.01F
CHILLICOTHE      N/A     84  70  62 E5        30.02F
KIRKSVILLE     PTSUNNY   83  67  58 MISG      30.04F

$$
MOZ066>068-077>081-088>096-101>105-302100-
...SOUTHWEST MISSOURI...

CITY           SKY/WX    TMP DP  RH WIND       PRES   REMARKS
SPRINGFIELD    SUNNY     84  69  60 S9        30.02F
JOPLIN         MOSUNNY   86  70  58 SE5       29.99F HX  90

$$
MOZ032>034-039>042-045>050-055>058-069>072-302100-
...CENTRAL MISSOURI...

CITY           SKY/WX    TMP DP  RH WIND       PRES   REMARKS
COLUMBIA       MOSUNNY   85  71  63 E7        30.02F HX  90
JEFFERSON CITY CLOUDY    86  70  58 NE3       30.00F HX  90
ROLLA          SUNNY     87  67  51 S7        30.02F HX  90
SEDALIA        MOSUNNY   85  69  58 S5        30.02F
WHITEMAN AFB   PTSUNNY   85  70  60 E5        29.99F HX  90
WARRENSBURG    MOSUNNY   84  70  61 E8        30.00F
OSAGE BEACH    MOSUNNY   88  68  51 SE5       30.01F HX  91

$$
MOZ051-052-059>065-302100-
...EAST CENTRAL MISSOURI...

CITY           SKY/WX    TMP DP  RH WIND       PRES   REMARKS
ST LOUIS INTL  PTSUNNY   88  66  48 S7        30.02F HX  90
SPIRIT OF STL  PTSUNNY   86  70  58 CALM      30.00F HX  90
ST CHARLES     PTSUNNY   87  71  58 VRB6      30.00F HX  93

$$
MOZ072>076-082>087-097>100-106>115-302100-
...SOUTH CENTRAL AND SOUTHEAST MISSOURI...

CITY           SKY/WX    TMP DP  RH WIND       PRES   REMARKS
CAPE GIRARDEAU MOSUNNY   84  73  69 SE9       30.02F HX  90
FARMINGTON     SUNNY     88  68  51 S9        30.05F HX  91
POPLAR BLUFF   MOSUNNY   87  73  62 SE6       30.01F HX  94
WEST PLAINS    PTSUNNY   83  69  62 VRB3      30.05F

$$



USA.gov is the U.S. government's official web portal to all federal, state and local government web resources and services.